Weather History for Joliet, IL

Change the Weather History Date:

Tuesday, February 19, 2013

  Actual Average (KLOT) Record (KLOT)
Temperature  
Mean Temperature 18 °F 29 °F  
Max Temperature 26 °F 37 °F 59 °F (1994)
Min Temperature 10 °F 21 °F -1 °F (2006)
Degree Days  
Heating Degree Days 47 36  
Month to date heating degree days 739  
Since 1 July heating degree days 4420  
Cooling Degree Days 0 0  
Month to date cooling degree days 0  
Year to date cooling degree days 0  
Moisture  
Dew Point 9 °F    
Average Humidity 74    
Maximum Humidity 86    
Minimum Humidity 67    
Precipitation  
Precipitation 0.21 in 0.06 in 0.85 in (1994)
Month to date precipitation 1.09  
Year to date precipitation 3.02  
Snow  
Snow 0.00 in 0.20 in 0.20 in (2013)
Month to date snowfall 4.5  
Since 1 July snowfall 25.5  
Snow Depth -    
Sea Level Pressure  
Sea Level Pressure 29.92 in    
Wind  
Wind Speed 17 mph (West)    
Max Wind Speed 23 mph    
Max Gust Speed 34 mph    
Visibility 8 miles    
Events Snow    
T = Trace of Precipitation, MM = Missing Value Source: NWS Daily Summary

Daily Weather History Graph

Daily Weather History Graph

Search for Another Location

Airport:

Trip Planner

Search our weather history database for the weather conditions in past years. The results will help you decide how hot, cold, wet, or windy it might be!

Date:

Astronomy

Feb. 19, 2013 Rise Set
Actual Time 6:41 AM CST 5:31 PM CST
Civil Twilight 6:13 AM CST 5:59 PM CST
Nautical Twilight 5:41 AM CST 6:32 PM CST
Astronomical Twilight 5:09 AM CST 7:04 PM CST
Moon 12:00 PM CST (2/19) 2:15 AM CST (2/19)
Length of Visible Light 11h 46m
Length of Day
10h 49m
Waxing Gibbous, 67% of the Moon is Illuminated
Feb 19
Waxing Gibbous
Feb 25
Full
Mar 4
Last Quarter
Mar 11
New
Mar 19
First Quarter

Hourly Weather History & Observations

Time (CST) Temp. Windchill Dew Point Humidity Pressure Visibility Wind Dir Wind Speed Gust Speed Precip Events Conditions
12:15 AM 26.6 °F 13.4 °F 23.0 °F 86% 29.63 in 10.0 mi West 18.4 mph 32.2 mph N/A   Overcast
12:35 AM 26.6 °F 13.8 °F 22.1 °F 83% 29.64 in 10.0 mi West 17.3 mph 26.5 mph N/A   Overcast
12:55 AM 26.6 °F 12.7 °F 21.2 °F 80% 29.65 in 10.0 mi West 20.7 mph 28.8 mph N/A   Overcast
1:15 AM 24.8 °F 11.1 °F 20.1 °F 82% 29.66 in 10.0 mi West 18.4 mph 28.8 mph N/A   Overcast
1:35 AM 24.4 °F 11.0 °F 19.4 °F 81% 29.67 in 10.0 mi West 17.3 mph 29.9 mph N/A   Overcast
1:55 AM 23.5 °F 11.3 °F 18.3 °F 80% 29.68 in 10.0 mi West 13.8 mph 32.2 mph N/A   Overcast
2:15 AM 22.6 °F 8.3 °F 17.1 °F 79% 29.69 in 10.0 mi West 18.4 mph 28.8 mph N/A   Overcast
2:35 AM 22.1 °F 7.2 °F 17.4 °F 82% 29.70 in 7.0 mi West 19.6 mph 27.6 mph N/A   Overcast
2:55 AM 21.2 °F 6.4 °F 15.6 °F 79% 29.71 in 10.0 mi West 18.4 mph 32.2 mph N/A   Overcast
3:15 AM 20.7 °F 7.6 °F 15.1 °F 79% 29.72 in 7.0 mi West 13.8 mph 26.5 mph N/A Snow Light Snow
3:35 AM 19.9 °F 4.8 °F 13.8 °F 77% 29.72 in 10.0 mi West 18.4 mph 28.8 mph N/A Snow Light Snow
3:55 AM 19.4 °F 4.1 °F 12.9 °F 76% 29.73 in 7.0 mi West 18.4 mph 28.8 mph N/A Snow Light Snow
4:15 AM 18.9 °F 3.3 °F 12.0 °F 75% 29.74 in 7.0 mi West 18.4 mph 31.1 mph N/A Snow Light Snow
4:35 AM 18.5 °F 2.9 °F 12.0 °F 76% 29.74 in 7.0 mi West 18.4 mph 29.9 mph N/A Snow Light Snow
4:55 AM 18.0 °F 2.6 °F 12.9 °F 81% 29.74 in 2.5 mi West 17.3 mph 25.3 mph N/A Snow Light Snow
5:15 AM 17.6 °F 1.3 °F 11.1 °F 76% 29.76 in 5.0 mi West 19.6 mph 27.6 mph N/A Snow Light Snow
5:35 AM 16.7 °F 2.0 °F 12.0 °F 82% 29.76 in 1.5 mi West 15.0 mph 29.9 mph N/A Snow Light Snow
5:55 AM 16.2 °F 2.5 °F 9.9 °F 76% 29.77 in 4.0 mi West 12.7 mph 27.6 mph N/A Snow Light Snow
6:15 AM 15.8 °F -0.2 °F 9.5 °F 76% 29.78 in 4.0 mi West 17.3 mph 24.2 mph N/A Snow Light Snow
6:35 AM 14.9 °F -2.3 °F 8.4 °F 76% 29.79 in 7.0 mi West 19.6 mph 28.8 mph N/A Snow Light Snow
6:55 AM 14.9 °F -1.8 °F 8.4 °F 76% 29.80 in 4.0 mi West 18.4 mph 29.9 mph N/A Snow Light Snow
7:15 AM 14.7 °F -1.6 °F 8.4 °F 76% 29.81 in 3.0 mi West 17.3 mph 27.6 mph N/A Snow Light Snow
7:35 AM 13.6 °F -2.4 °F 7.7 °F 77% 29.82 in 3.0 mi West 16.1 mph 28.8 mph N/A Snow Light Snow
7:55 AM 13.8 °F -3.7 °F 6.6 °F 73% 29.84 in 10.0 mi West 19.6 mph 28.8 mph N/A   Overcast
8:15 AM 13.5 °F -4.6 °F 6.8 °F 75% 29.85 in 7.0 mi West 20.7 mph 26.5 mph N/A   Overcast
8:35 AM 13.6 °F -1.3 °F 6.8 °F 74% 29.85 in 4.0 mi West 13.8 mph 27.6 mph N/A Snow Light Snow
8:55 AM 13.5 °F -3.7 °F 5.9 °F 72% 29.85 in 4.0 mi West 18.4 mph 28.8 mph N/A Snow Light Snow
9:15 AM 13.6 °F -5.2 °F 6.4 °F 73% 29.87 in 10.0 mi West 23.0 mph 33.4 mph N/A   Overcast
9:35 AM 14.0 °F -2.0 °F 6.1 °F 71% 29.88 in 10.0 mi West 16.1 mph 29.9 mph N/A   Overcast
9:55 AM 13.8 °F -2.7 °F 6.1 °F 71% 29.89 in 5.0 mi West 17.3 mph 31.1 mph N/A   Haze
10:15 AM 13.8 °F -4.9 °F 5.7 °F 70% 29.89 in 10.0 mi West 23.0 mph 34.5 mph N/A   Overcast
10:35 AM 14.2 °F -4.1 °F 6.6 °F 72% 29.91 in 5.0 mi West 21.9 mph 32.2 mph N/A   Haze
10:55 AM 13.8 °F -4.5 °F 5.7 °F 70% 29.91 in 7.0 mi West 21.9 mph 27.6 mph N/A   Overcast
11:15 AM 13.6 °F -4.4 °F 5.4 °F 70% 29.92 in 7.0 mi West 20.7 mph 29.9 mph N/A   Overcast
11:35 AM 13.8 °F -2.7 °F 5.7 °F 70% 29.93 in 7.0 mi West 17.3 mph 32.2 mph N/A   Overcast
11:55 AM 13.8 °F -3.7 °F 6.1 °F 71% 29.92 in 4.0 mi West 19.6 mph 28.8 mph N/A Snow Light Snow
12:15 PM 14.2 °F -2.3 °F 6.3 °F 71% 29.92 in 5.0 mi West 17.3 mph 27.6 mph N/A   Haze
12:35 PM 14.5 °F -2.7 °F 6.4 °F 70% 29.93 in 5.0 mi West 19.6 mph 28.8 mph N/A   Haze
12:55 PM 14.5 °F -2.7 °F 6.6 °F 71% 29.94 in 7.0 mi West 19.6 mph 28.8 mph N/A   Overcast
1:15 PM 14.2 °F -2.7 °F 6.4 °F 71% 29.95 in 5.0 mi West 18.4 mph 32.2 mph N/A   Haze
1:35 PM 14.4 °F -3.4 °F 5.9 °F 69% 29.96 in 7.0 mi West 20.7 mph 33.4 mph N/A   Overcast
1:55 PM 14.4 °F -2.0 °F 6.4 °F 71% 29.97 in 7.0 mi West 17.3 mph 27.6 mph N/A   Overcast
2:15 PM 14.5 °F -3.2 °F 6.4 °F 70% 29.98 in 7.0 mi West 20.7 mph 29.9 mph N/A   Overcast
2:35 PM 14.9 °F -0.8 °F 7.3 °F 72% 29.99 in 7.0 mi West 16.1 mph 23.0 mph N/A   Overcast
2:55 PM 15.1 °F 1.1 °F 7.7 °F 73% 30.00 in 7.0 mi West 12.7 mph 29.9 mph N/A   Overcast
3:15 PM 15.3 °F -0.4 °F 7.5 °F 71% 30.01 in 7.0 mi West 16.1 mph 28.8 mph N/A   Overcast
3:35 PM 15.4 °F 1.6 °F 8.1 °F 73% 30.01 in 5.0 mi West 12.7 mph 25.3 mph N/A Snow Light Snow
3:55 PM 15.4 °F -1.6 °F 8.1 °F 73% 30.02 in 7.0 mi West 19.6 mph 33.4 mph N/A   Overcast
4:15 PM 15.8 °F -0.2 °F 7.9 °F 71% 30.02 in 10.0 mi West 17.3 mph 27.6 mph N/A   Overcast
4:35 PM 15.8 °F -0.6 °F 7.7 °F 70% 30.04 in 10.0 mi WNW 18.4 mph 27.6 mph N/A   Overcast
4:55 PM 15.8 °F 2.1 °F 7.7 °F 70% 30.05 in 10.0 mi WNW 12.7 mph 31.1 mph N/A   Overcast
5:15 PM 15.8 °F 0.9 °F 8.1 °F 72% 30.05 in 10.0 mi West 15.0 mph 23.0 mph N/A   Overcast
6:15 PM 15.8 °F 0.3 °F 8.6 °F 73% 30.08 in 10.0 mi WNW 16.1 mph 25.3 mph N/A   Overcast
6:35 PM 15.8 °F 0.9 °F 8.6 °F 73% 30.09 in 10.0 mi West 15.0 mph 23.0 mph N/A   Overcast
6:55 PM 16.3 °F 3.4 °F 8.8 °F 72% 30.09 in 10.0 mi West 11.5 mph 23.0 mph N/A Snow Light Snow
7:15 PM 16.2 °F 1.9 °F 8.2 °F 71% 30.09 in 10.0 mi WNW 13.8 mph 21.9 mph N/A   Overcast
7:35 PM 15.8 °F 2.7 °F 8.6 °F 73% 30.10 in 10.0 mi WNW 11.5 mph 21.9 mph N/A Snow Light Snow
7:55 PM 14.9 °F 2.3 °F 7.3 °F 72% 30.11 in 10.0 mi NW 10.4 mph 18.4 mph N/A   Overcast
8:15 PM 14.9 °F 1.6 °F 6.6 °F 70% 30.12 in 10.0 mi WNW 11.5 mph 25.3 mph N/A   Overcast
8:35 PM 14.7 °F 0.7 °F 6.8 °F 71% 30.13 in 10.0 mi WNW 12.7 mph 23.0 mph N/A   Overcast
8:55 PM 14.4 °F 2.4 °F 6.6 °F 71% 30.14 in 10.0 mi NW 9.2 mph 19.6 mph N/A   Overcast
9:15 PM 13.8 °F -1.1 °F 5.0 °F 68% 30.15 in 10.0 mi WNW 13.8 mph 21.9 mph N/A   Mostly Cloudy
9:35 PM 12.9 °F -1.6 °F 3.9 °F 67% 30.15 in 10.0 mi WNW 12.7 mph 23.0 mph N/A   Scattered Clouds
9:55 PM 12.4 °F 2.0 °F 4.1 °F 69% 30.16 in 10.0 mi NW 6.9 mph 17.3 mph N/A   Scattered Clouds
10:15 PM 12.0 °F -1.3 °F 3.7 °F 69% 30.17 in 10.0 mi WNW 10.4 mph 17.3 mph N/A   Scattered Clouds
10:35 PM 11.3 °F -2.9 °F 3.0 °F 69% 30.17 in 10.0 mi NW 11.5 mph 16.1 mph N/A   Clear
10:55 PM 10.9 °F -3.4 °F 2.8 °F 70% 30.18 in 10.0 mi WNW 11.5 mph 17.3 mph N/A   Clear
11:15 PM 10.4 °F -1.5 °F 2.5 °F 70% 30.18 in 10.0 mi NW 8.1 mph - N/A   Clear
11:35 PM 10.4 °F -3.3 °F 2.8 °F 72% 30.19 in 10.0 mi WNW 10.4 mph - N/A   Clear
11:55 PM 10.2 °F -0.6 °F 3.0 °F 73% 30.20 in 10.0 mi WNW 6.9 mph - N/A   Clear